Vorticity
3 3 3 3 3 3 2 2 2 2 2 2 2 2 2 2 2 3 3 2 2 2 2 2 2 2 2 1 1 1 1 1 1 1 1 1 2 2 2 2 2 2 2 2 2 2 2 2 2 1 1 1 1 1 2 2 2 2 1 1 1 1 1 2 2 2 2 2 3 3 3 3 3 3 3 3 3 4 5 6 7 7 8 9 9 9 8 8 8 7 7 6 6 5 5 5 5 5 4 4 5 5 5
1 1 1 2 2 2 2 2 2 2 2 2 2 2 2 2 2 2 2 2 2 2 2 1 1 1 1 1 1 1 1 1 2 2 2 2 2 2 2 2 2 2 2 2 2 2 2 2 2 2 2 1 1 1 2 2 2 2 2 1 1 1 1 2 2 2 1 2 2 2 3 3 3 3 3 3 2 2 2 3 4 4 5 6 7 8 8 8 9 9 9 9 8 8 8 8 7 7 6 6 6 6 6
0 0 0 0 1 1 2 2 3 3 3 2 2 2 2 2 2 1 1 2 2 2 2 2 1 1 1 2 2 2 2 2 2 2 2 2 2 2 2 2 3 3 3 3 3 3 3 3 3 3 3 2 2 2 2 2 2 2 2 2 2 2 2 2 2 2 2 1 1 2 2 2 3 3 3 3 3 3 2 2 2 2 3 3 4 5 6 6 7 7 8 8 9 9 9 9 9 9 9 9 8 8 8
1 0 0 -1 -1 -0 1 2 2 3 2 2 2 2 2 2 1 1 1 1 1 2 2 2 2 2 2 2 2 2 2 2 2 2 2 2 2 2 2 2 3 3 3 3 3 4 4 4 4 4 3 3 3 3 3 3 3 3 2 2 2 2 2 2 2 2 2 2 1 1 1 1 2 2 3 3 3 3 3 3 2 2 2 2 2 3 3 4 4 5 5 6 6 7 8 8 9 9 10 10 10 10 10
1 1 1 1 0 -1 -2 1 2 2 1 1 1 1 1 2 1 1 1 1 1 2 2 2 2 2 2 2 2 2 2 2 2 2 2 2 2 2 2 2 2 2 3 3 3 3 4 4 4 4 4 4 4 3 3 3 3 3 3 3 2 2 2 2 2 2 2 2 2 1 1 1 1 2 2 2 3 3 3 3 2 2 2 2 2 2 2 2 3 3 3 4 4 5 5 6 6 7 8 8 9 9 10
1 1 1 2 1 1 -1 0 1 1 1 1 1 1 1 1 1 1 1 1 1 2 2 2 2 2 2 2 2 2 2 2 2 2 2 2 2 2 2 2 2 2 2 2 3 3 3 3 4 4 4 4 4 4 4 4 4 4 4 3 3 3 3 3 3 2 2 2 2 2 1 1 1 1 1 2 2 2 3 3 3 2 2 2 2 2 2 2 2 2 2 3 3 3 3 4 4 5 5 6 6 7 8
2 1 2 1 1 1 1 1 1 1 1 1 1 1 1 1 1 1 1 2 2 2 2 2 2 2 3 3 3 3 3 3 3 3 3 3 3 3 3 3 3 3 3 2 2 2 2 2 2 3 3 3 3 3 4 4 4 4 4 4 3 3 3 3 3 3 3 2 2 2 2 2 2 1 1 1 2 2 2 2 2 2 2 2 2 2 2 2 2 2 2 2 2 2 2 2 3 3 3 4 4 4 5
2 1 1 1 1 1 1 1 1 1 1 1 1 1 1 1 1 1 2 2 2 2 2 2 2 3 3 3 3 3 3 3 3 3 3 3 3 4 4 4 4 4 3 3 3 2 2 2 2 2 2 2 2 3 3 3 3 4 4 4 3 3 3 3 3 3 3 3 3 2 2 2 2 2 2 2 2 2 2 2 2 2 2 2 2 2 2 2 2 2 2 1 1 1 1 2 2 2 2 2 2 3 3
1 1 2 1 1 1 1 1 1 1 1 1 1 1 2 2 2 2 2 2 2 2 3 3 3 3 3 3 3 3 3 3 3 4 4 4 4 3 4 4 4 4 4 4 4 3 3 3 3 3 3 2 2 2 3 3 3 3 3 3 3 3 3 3 3 3 3 3 3 3 3 2 2 2 2 2 2 2 2 2 2 2 2 2 2 2 2 2 2 2 2 2 1 1 1 1 1 1 1 1 1 2 2
0 0 1 1 1 1 1 1 1 1 1 1 1 1 1 2 2 2 2 2 2 2 3 3 3 3 4 4 3 3 3 3 3 3 3 3 3 3 3 4 4 4 4 4 4 4 4 4 3 3 3 3 3 3 3 3 3 3 3 3 3 3 3 3 3 3 3 3 3 3 3 3 3 3 3 3 3 3 3 2 2 2 2 2 2 2 2 2 2 2 3 2 2 2 1 1 1 0 0 1 1 1 1
0 0 0 0 1 1 1 1 1 1 1 1 1 1 1 1 2 2 2 2 2 2 3 3 3 3 3 3 3 3 3 3 3 3 3 3 3 3 3 3 3 4 4 4 4 4 4 4 4 3 3 3 4 4 3 3 3 3 3 3 3 3 3 3 3 3 3 3 3 3 3 3 3 3 3 3 3 3 3 3 3 3 2 2 2 2 2 2 2 2 3 3 3 3 2 2 1 1 0 0 0 0 1
-0 0 1 0 1 1 1 1 1 1 1 1 1 1 1 1 1 2 2 2 2 2 2 3 3 3 3 3 3 3 3 3 3 3 3 3 3 3 3 3 3 3 3 3 3 3 3 4 3 3 3 4 4 4 4 4 4 3 3 3 3 3 3 3 3 3 3 3 3 3 3 3 3 3 3 3 3 3 3 3 3 3 3 3 2 2 2 2 2 2 2 3 3 3 3 3 3 2 1 1 1 0 0
0 0 1 1 1 1 2 2 2 2 2 2 2 2 1 1 2 2 2 2 2 2 2 2 3 3 3 3 3 3 3 3 3 3 3 3 3 3 3 3 3 3 4 4 4 4 4 4 4 3 3 4 4 4 4 4 4 4 4 4 3 3 3 3 3 3 3 3 3 3 3 4 4 3 3 3 3 4 4 4 4 3 3 3 3 3 3 2 2 2 2 2 3 3 4 4 4 3 3 2 2 1 1
1 1 1 1 2 2 2 2 3 3 3 3 3 3 3 2 2 3 3 3 3 3 3 3 3 3 3 3 3 3 3 3 3 3 3 3 3 3 3 3 3 3 4 4 4 4 4 4 4 4 4 4 4 4 4 4 4 4 4 4 4 4 4 3 3 3 3 3 3 3 4 4 4 4 4 4 4 4 4 4 4 4 4 4 4 4 4 4 3 3 3 3 3 3 3 4 4 4 4 4 3 3 2
1 1 1 2 2 2 3 3 3 3 4 4 4 4 4 4 4 4 4 4 4 4 4 4 4 4 4 4 4 4 4 4 4 3 3 3 3 3 3 3 3 4 4 4 4 4 5 5 5 5 4 4 4 5 5 5 5 5 5 5 4 4 4 4 4 4 3 3 3 4 4 4 4 5 5 5 5 5 5 5 5 5 5 5 5 5 5 5 5 5 4 4 4 4 4 4 4 5 5 5 5 4 4
1 1 2 2 2 3 3 3 4 4 4 4 5 5 5 5 5 5 5 5 6 5 5 5 5 4 4 4 4 4 4 4 4 4 4 4 4 3 3 3 4 4 4 5 5 5 5 5 6 6 6 5 5 5 6 6 6 6 6 5 5 5 5 4 4 4 4 4 4 4 4 4 5 5 5 5 6 6 6 6 6 6 6 6 6 6 6 6 6 6 6 6 5 5 5 5 5 5 5 6 6 6 5
2 2 2 2 2 3 3 4 4 5 5 5 5 5 5 5 5 5 6 6 6 6 6 6 5 5 5 5 4 4 4 4 4 4 4 4 4 4 3 4 4 5 5 5 5 5 6 6 6 7 7 7 7 7 7 7 7 7 7 6 6 6 6 5 5 5 5 5 5 5 5 5 5 5 6 6 6 6 6 6 6 6 6 7 7 7 7 7 7 7 7 7 7 7 6 6 6 6 6 6 6 6 6
2 2 2 3 3 3 4 4 5 5 5 5 6 6 6 6 6 6 6 6 6 6 6 6 6 5 5 5 5 4 4 4 4 4 4 4 4 4 4 5 5 5 6 6 6 6 6 6 7 8 9 9 9 9 8 8 8 8 8 8 8 7 7 7 7 6 6 6 6 6 6 6 6 6 6 6 6 6 6 6 6 6 6 6 7 7 7 8 8 8 8 8 8 8 8 7 7 7 7 7 7 7 7
3 3 3 3 3 4 4 5 5 6 6 6 6 6 6 6 6 6 6 6 6 6 6 6 5 5 5 5 5 4 4 4 4 4 4 4 4 4 5 6 6 6 6 6 6 6 6 6 7 8 9 10 10 10 9 9 9 9 9 9 8 8 8 8 8 8 8 8 8 8 8 7 7 6 6 6 6 6 6 6 6 6 6 6 6 7 7 7 8 8 8 8 8 9 9 9 8 8 8 8 7 7 7
2 3 3 3 3 4 5 5 6 6 6 6 6 6 6 6 6 5 5 5 5 6 6 5 5 5 5 5 5 5 5 4 4 4 4 3 4 5 6 6 7 7 6 6 6 6 6 7 7 8 9 10 10 10 10 10 9 9 9 9 9 9 9 9 9 9 8 9 9 9 9 9 8 7 6 6 6 6 6 6 6 5 5 6 6 6 7 7 7 8 8 8 8 8 8 9 9 9 8 8 8 8 8
2 2 3 3 4 4 5 6 6 7 7 6 6 6 6 5 5 5 5 5 5 6 6 5 5 5 6 6 6 6 6 6 6 5 5 5 5 5 6 6 7 7 7 7 7 7 7 7 7 8 8 9 9 10 10 9 9 9 9 9 9 9 9 9 9 9 9 9 9 9 9 9 9 9 8 7 6 6 6 6 6 5 5 5 6 6 6 7 7 7 7 7 8 8 8 8 8 8 8 8 8 8 8
2 2 2 3 4 4 5 6 7 7 7 6 6 6 5 5 5 5 4 5 5 6 6 6 6 6 6 6 6 6 7 8 8 9 8 8 8 7 7 7 7 7 7 7 7 7 7 7 7 7 7 8 8 9 9 9 9 8 8 8 8 8 8 8 8 8 8 9 9 9 9 9 9 10 10 8 7 7 6 6 6 6 6 6 6 6 6 6 6 7 7 7 7 7 7 7 7 7 7 7 7 7 8
2 2 2 3 4 4 5 6 7 7 7 6 6 6 5 5 5 4 4 5 5 5 6 6 6 6 6 6 6 7 7 9 10 10 11 10 10 9 8 8 8 7 7 7 8 8 8 7 7 6 6 7 7 8 8 8 8 8 8 8 8 8 8 8 8 8 8 8 9 9 9 9 9 9 9 9 8 8 7 7 7 7 6 6 6 6 6 6 6 6 6 6 6 6 6 6 6 6 6 6 6 6 7
2 2 2 3 4 4 6 7 7 8 7 7 6 6 6 5 5 4 4 4 5 5 6 6 6 6 6 6 7 7 7 8 8 9 9 9 9 9 9 9 9 9 9 8 8 8 8 8 7 6 5 6 6 7 7 7 8 7 7 7 7 8 8 8 8 8 8 8 8 8 9 9 8 8 9 9 9 9 8 8 7 7 7 7 7 7 7 7 7 7 6 6 6 5 5 5 5 5 5 5 5 5 6
2 1 2 3 4 5 6 7 8 7 7 7 6 6 6 5 5 4 4 4 4 5 5 6 6 7 7 7 8 8 8 8 7 7 6 7 8 8 9 9 9 9 9 9 9 9 8 7 7 6 5 5 6 6 7 8 8 8 8 8 8 8 8 8 8 8 8 8 8 8 8 8 8 8 8 8 9 9 9 9 9 8 8 8 8 8 8 8 8 7 7 6 6 5 5 5 5 5 5 5 5 5 5
1 1 2 3 5 6 7 8 8 7 7 7 6 6 5 4 4 3 3 3 4 5 5 6 7 7 7 8 8 8 7 7 7 6 6 6 7 8 9 9 9 10 9 9 9 8 7 7 6 6 5 5 5 6 7 8 9 9 9 9 9 8 8 8 9 9 9 8 8 8 8 8 8 8 8 8 9 9 10 10 10 10 10 10 9 9 9 9 8 8 7 7 7 6 6 6 6 6 5 5 5 5 6
1 1 2 4 5 7 8 9 9 8 6 6 5 5 4 3 3 3 3 3 4 5 6 6 7 7 8 8 8 7 7 7 6 6 7 7 7 8 9 9 9 10 9 9 8 8 7 6 6 5 5 5 5 6 8 9 9 10 10 10 10 10 9 9 9 10 10 9 9 9 9 9 8 8 8 8 8 9 9 10 10 11 11 10 10 9 9 8 8 8 8 7 7 7 7 6 7 7 7 7 7 7 7
0 1 2 4 6 8 9 10 9 8 6 4 4 3 3 2 2 2 3 3 4 5 6 6 7 7 7 7 7 7 7 7 7 7 7 7 8 8 9 9 10 10 9 9 8 8 7 6 6 5 5 5 6 6 7 8 9 10 10 10 10 10 10 10 10 10 11 11 10 10 10 10 9 9 8 8 8 9 9 10 10 10 10 9 9 9 8 8 8 8 7 7 7 7 7 7 7 7 8 8 8 8 8
0 1 2 5 7 9 11 10 9 7 4 3 2 3 3 3 2 2 3 4 5 5 6 6 6 7 7 7 7 7 7 7 7 7 7 7 7 8 9 9 9 9 9 9 8 8 7 6 6 6 6 6 6 6 7 8 8 9 10 10 10 10 10 10 10 11 11 12 12 11 11 11 10 10 10 9 9 9 9 10 10 10 9 9 8 8 8 7 7 7 7 7 7 7 7 7 8 8 8 8 8 8 8
1 2 4 7 9 11 11 10 8 5 3 2 2 3 3 3 3 3 3 4 5 6 6 6 6 6 6 7 7 7 7 7 7 7 7 7 7 8 8 8 8 8 8 8 8 7 7 7 6 6 6 6 6 6 7 7 8 9 10 10 10 10 10 10 10 10 11 12 12 12 12 12 11 11 11 10 10 10 9 10 10 10 10 9 8 8 7 7 7 7 7 7 7 7 7 7 8 8 8 8 8 8 8
2 3 6 8 11 12 11 8 5 3 2 2 3 3 3 3 3 4 3 4 5 5 6 6 6 6 6 6 7 7 7 8 8 8 7 7 7 7 7 7 7 7 7 7 7 7 7 6 6 6 6 6 7 7 7 7 8 9 10 10 11 11 10 10 10 10 10 11 11 11 12 12 12 11 11 11 10 10 10 10 10 10 10 10 9 9 8 8 8 8 7 7 7 7 8 8 8 8 8 8 8 8 7
3 5 8 10 11 11 9 6 4 3 2 3 3 3 2 3 3 4 4 5 5 5 6 5 5 6 6 6 6 7 8 8 8 8 7 7 7 7 6 7 7 7 7 6 6 6 6 6 6 6 6 7 7 7 7 8 8 9 10 10 11 11 10 10 10 9 9 9 10 10 10 11 11 11 11 10 10 10 10 10 10 9 10 10 9 9 9 9 9 9 8 8 8 8 9 9 9 8 8 8 8 7 6
5 8 10 12 11 9 6 4 3 2 2 3 3 3 2 3 3 4 4 5 5 5 5 5 5 5 5 6 6 7 7 7 8 8 7 7 7 6 6 6 6 7 7 7 7 6 6 6 6 6 6 7 7 7 7 8 8 9 9 10 10 10 10 10 9 9 9 8 8 8 9 9 10 10 10 10 9 9 9 9 9 9 10 10 9 9 10 10 10 10 9 9 9 9 9 9 9 9 8 8 8 7 6
8 11 12 12 10 7 4 3 2 2 2 3 3 3 2 3 4 4 5 5 5 5 5 5 5 5 5 5 6 6 7 7 7 7 7 7 6 6 6 6 6 6 7 7 7 7 6 6 6 6 6 7 7 7 8 8 8 8 9 9 9 10 10 10 9 9 8 7 7 7 7 8 9 9 9 9 9 9 9 9 9 9 10 10 9 9 9 10 10 10 9 9 8 9 9 9 9 8 8 8 7 7 6
10 12 13 11 8 6 3 2 1 2 2 2 3 3 3 3 4 4 5 5 5 5 5 5 5 5 5 5 6 6 6 7 7 7 7 7 6 6 6 6 6 6 7 7 7 7 7 7 6 6 7 7 8 8 8 8 8 8 8 8 9 9 9 9 9 8 8 7 7 7 7 7 8 8 8 8 8 8 9 9 9 9 9 9 10 10 9 9 8 8 8 8 8 8 7 7 7 7 7 7 6 6 5
12 13 12 9 6 4 2 2 2 2 2 3 3 3 3 3 4 4 5 5 5 5 5 5 5 5 5 5 5 6 6 7 7 7 6 7 7 7 6 6 5 5 6 6 7 7 7 7 7 7 8 8 8 8 9 8 8 8 8 8 8 8 9 9 8 8 7 7 7 7 7 7 7 7 7 7 8 8 9 9 9 9 9 9 9 10 11 8 7 6 7 7 8 8 7 6 6 6 6 6 5 4 4
14 13 10 7 4 2 1 2 2 2 3 3 3 3 3 4 4 5 5 5 5 5 5 4 4 4 5 5 5 5 6 7 7 7 7 7 7 7 6 6 6 5 4 5 6 6 7 8 8 8 9 9 9 9 9 8 8 8 8 8 8 8 8 8 8 7 7 7 7 7 7 7 7 7 7 7 8 8 8 8 9 9 9 9 9 9 10 8 7 7 7 7 7 8 8 7 7 6 6 4 3 2 3
13 11 8 5 3 2 2 2 2 3 3 3 3 3 4 4 5 5 5 5 5 4 4 4 4 4 4 4 5 5 6 7 7 7 8 8 8 7 7 7 6 5 4 4 5 6 8 8 9 9 9 9 9 9 9 9 9 9 8 8 8 8 8 8 8 7 7 6 7 7 7 8 8 8 7 8 8 8 8 8 7 8 8 8 8 8 9 9 8 8 8 8 7 7 7 8 8 7 5 3 1 -0 1
11 8 5 3 2 2 2 2 2 3 3 3 3 4 4 4 5 5 5 5 4 4 4 4 4 4 4 4 5 5 6 6 7 7 8 8 7 7 7 7 7 6 5 4 5 6 8 8 9 10 10 10 10 9 9 9 9 9 8 8 8 8 8 8 7 7 7 6 7 7 8 8 8 8 8 8 8 8 8 7 6 6 7 8 8 8 9 9 8 8 8 8 8 8 9 7 7 6 3 2 0 -0 0
8 5 2 2 1 2 2 2 2 2 3 3 3 4 5 5 5 5 5 4 4 4 4 4 4 4 4 4 5 5 5 6 6 7 7 7 7 7 7 7 7 7 6 6 5 6 7 8 9 10 10 10 10 9 9 10 9 9 8 8 8 8 8 8 7 7 7 7 7 7 8 8 8 9 8 8 9 9 9 7 4 3 5 7 8 8 9 9 9 8 9 9 9 9 10 7 5 4 2 2 2 1 2
5 3 1 1 1 2 2 2 2 3 3 3 4 4 5 5 5 5 5 4 4 4 3 4 4 4 5 5 5 5 5 5 6 7 7 6 6 7 7 7 7 7 7 7 6 6 6 7 7 8 9 9 9 10 10 10 9 9 8 8 8 8 8 8 8 7 7 7 7 8 8 8 8 9 9 9 9 11 12 9 5 2 3 7 8 9 9 10 10 10 10 10 9 8 7 6 5 3 2 3 3 2 2
2 1 1 2 2 2 2 2 2 3 3 4 4 5 5 5 5 5 5 4 4 4 3 3 4 4 5 5 5 5 5 5 6 6 7 6 6 6 7 7 7 7 7 7 7 7 6 6 6 7 8 8 9 10 10 9 9 8 8 8 9 9 9 9 8 8 8 8 8 8 8 7 8 8 8 9 9 11 14 13 10 7 6 8 9 10 11 11 11 10 10 9 8 7 6 6 5 5 4 4 3 2 1
1 1 2 2 2 2 2 2 3 3 4 4 5 5 5 5 5 4 4 4 4 4 4 4 4 4 5 5 5 5 5 5 6 6 7 7 7 7 7 7 7 7 7 8 8 7 7 6 6 7 8 8 9 10 9 9 8 8 8 8 9 9 10 9 9 9 9 9 9 9 8 7 7 7 7 8 9 10 12 13 12 10 9 10 10 11 12 11 10 9 8 6 6 5 5 5 6 7 6 4 2 2 2
1 1 2 2 2 2 2 3 3 4 4 5 5 5 5 5 5 4 4 4 4 4 4 4 4 4 4 5 5 4 5 5 6 7 7 7 7 7 7 8 8 8 8 8 8 8 8 7 7 7 8 9 9 9 8 8 8 8 8 9 10 10 11 10 10 10 10 10 9 9 8 7 6 5 6 7 8 9 9 10 9 9 10 10 11 11 11 10 8 7 5 4 3 3 3 4 6 7 6 4 3 3 5
1 2 2 2 2 2 2 3 4 4 5 5 5 5 5 5 4 4 4 4 4 4 4 4 4 4 4 4 5 5 5 6 7 7 8 8 8 8 8 8 8 8 8 8 8 8 8 8 8 8 9 9 9 8 8 8 8 8 9 10 11 11 12 12 11 11 11 10 9 9 8 7 6 5 5 5 7 8 8 8 9 9 9 10 10 10 10 8 6 5 3 2 2 2 2 3 5 6 6 5 6 6 7
2 2 2 3 3 3 3 4 4 5 5 5 5 5 5 4 4 4 4 4 4 4 4 5 5 4 4 5 5 5 5 6 7 8 8 8 8 8 9 9 9 9 9 9 8 8 8 9 9 9 9 8 8 8 8 9 9 9 10 11 12 12 12 12 12 11 11 10 9 8 7 6 5 4 5 5 6 7 8 8 9 9 9 9 8 8 7 6 5 3 2 2 2 2 2 3 5 6 7 7 7 8 7
2 2 3 3 3 3 4 4 5 5 5 5 5 4 4 4 4 4 4 4 4 4 4 5 5 5 5 5 5 5 6 7 8 8 8 8 8 9 9 9 9 9 9 8 8 8 8 9 9 10 9 8 8 8 9 9 9 9 11 11 12 12 12 12 12 12 11 10 9 8 7 6 4 4 4 5 6 7 8 8 9 9 8 7 6 5 4 4 3 2 2 2 2 2 3 4 5 7 8 8 8 8 7
2 3 3 3 4 4 5 5 5 5 5 4 4 4 4 4 4 4 4 4 4 4 5 5 5 5 5 5 6 6 7 8 8 9 8 8 9 10 10 8 8 9 9 9 8 8 8 9 9 9 8 8 8 8 9 9 9 9 10 11 11 11 11 11 11 11 10 10 9 9 8 7 6 5 5 6 7 8 9 9 9 9 8 6 4 3 2 2 2 2 2 2 3 3 4 5 7 8 9 9 9 9 8
3 3 4 4 4 5 5 5 5 4 4 4 4 4 4 4 4 4 4 4 5 5 5 5 5 5 5 6 6 7 8 9 9 9 9 9 9 10 10 9 8 8 9 9 9 8 8 9 9 9 8 8 8 9 10 9 9 9 9 10 10 10 9 9 9 9 9 10 10 10 10 9 9 9 9 9 9 10 10 10 10 9 7 6 4 3 2 2 2 2 3 3 4 5 6 6 7 8 9 9 9 9 9
3 4 4 5 5 5 5 5 4 4 4 4 4 4 4 4 4 4 4 4 5 5 5 5 5 6 6 6 7 8 9 9 9 9 10 12 10 8 7 9 9 8 8 9 9 8 8 9 9 9 8 8 8 9 9 9 8 8 9 9 9 8 8 8 8 8 8 10 10 11 10 8 9 11 13 12 11 10 11 11 11 10 8 6 4 3 3 2 3 3 4 5 5 6 7 7 8 8 9 9 10 10 10
4 5 5 5 5 5 5 4 4 4 4 4 4 4 4 4 4 4 4 5 5 5 5 5 6 6 7 7 7 8 9 9 9 9 10 12 12 10 6 6 7 8 9 8 9 9 8 9 9 9 8 7 7 8 8 8 8 8 9 8 8 7 7 7 7 7 7 9 11 12 9 5 7 10 13 11 10 9 10 10 10 9 7 6 4 4 4 4 4 5 5 6 6 7 7 8 8 9 9 9 10 10 10
5 5 5 5 4 4 4 3 3 4 4 4 4 4 4 4 4 5 5 5 5 5 6 6 6 6 7 7 8 8 9 9 10 10 10 8 9 10 9 6 7 9 8 7 7 8 9 10 10 9 7 6 7 7 8 8 9 9 8 8 7 7 7 6 6 6 6 9 12 14 12 9 9 11 11 9 7 7 7 7 7 6 6 5 5 5 5 5 6 6 6 6 6 7 7 8 8 9 9 10 10 10 10
4 4 4 4 4 3 3 4 4 4 4 4 4 4 4 4 4 5 5 5 5 6 7 7 6 6 6 7 8 9 10 10 10 10 11 8 6 7 10 11 10 9 6 5 6 8 11 10 10 9 8 6 6 7 8 9 9 8 8 7 7 7 6 6 5 5 5 8 11 14 17 17 15 12 8 6 5 5 4 3 3 4 5 5 6 6 6 6 6 6 6 6 6 7 8 8 9 10 10 10 10 10 10
4 3 3 3 3 4 4 4 4 4 5 5 5 5 4 4 5 5 5 5 6 6 7 7 7 7 6 8 9 10 9 10 9 9 11 10 7 5 7 10 9 7 6 7 7 7 10 9 8 7 7 6 6 7 8 8 8 8 7 7 6 6 6 6 5 4 4 7 11 14 16 16 13 10 7 5 4 3 2 1 2 3 5 6 7 7 7 7 6 6 6 6 7 7 8 9 10 11 11 11 11 11 10
3 3 3 4 4 4 5 5 5 4 4 5 5 4 4 4 5 5 5 6 6 6 7 7 7 8 7 7 8 8 8 9 10 10 10 11 11 10 5 5 5 7 8 11 11 10 7 7 7 6 7 7 7 8 8 8 8 7 7 6 6 6 7 7 6 4 3 7 12 16 17 14 10 6 4 4 3 2 1 1 2 4 6 7 7 7 7 6 5 5 5 6 7 8 9 10 11 12 12 12 11 11 10
3 3 4 4 4 4 4 4 4 4 4 4 4 4 4 5 5 5 6 6 7 7 7 7 7 8 9 7 6 7 8 8 10 11 10 9 11 11 9 6 5 5 5 8 9 9 8 6 6 7 9 7 7 7 7 7 7 6 6 5 6 6 8 7 5 5 5 8 13 17 17 12 7 4 2 2 1 1 0 1 3 5 6 7 7 7 6 5 5 5 6 7 8 9 10 11 12 12 12 12 11 11 10
3 3 4 4 3 3 3 4 4 4 4 4 4 4 5 5 5 6 6 7 7 7 7 7 6 7 9 9 7 6 7 8 10 11 11 9 7 8 10 11 10 7 6 6 5 6 8 7 7 8 8 8 7 6 5 6 6 6 5 5 5 6 8 6 5 5 5 9 13 15 14 9 6 3 3 2 1 0 0 2 4 6 7 7 7 6 5 5 5 5 6 7 8 9 10 11 12 13 13 12 11 11 10
4 4 3 3 3 3 4 4 4 4 4 4 5 5 5 5 6 7 7 7 7 7 7 7 7 7 8 8 8 7 7 8 9 9 10 9 8 8 9 10 10 10 10 9 7 6 4 7 9 9 2 5 6 7 6 6 6 6 6 5 5 6 7 8 7 7 6 10 12 13 11 7 5 4 3 1 -0 -0 1 4 5 6 7 6 6 5 5 5 5 6 7 8 9 10 11 12 13 13 13 12 11 11 11
4 4 4 4 4 4 4 5 5 5 5 5 5 5 6 7 7 7 7 7 7 7 7 8 8 8 7 7 7 8 8 9 9 8 6 8 9 10 9 8 8 8 9 9 10 9 6 7 7 7 3 3 4 6 7 7 6 5 5 5 5 6 7 8 8 8 9 11 12 12 10 7 5 3 1 -1 -0 1 3 5 6 7 6 6 5 5 5 5 6 6 7 8 9 10 12 12 13 13 12 12 11 11 11
4 4 4 4 4 4 4 5 5 5 5 5 6 6 6 7 7 7 7 8 8 8 8 8 8 7 7 7 8 8 8 9 9 8 7 7 9 10 9 8 7 7 7 8 9 9 10 9 7 6 6 5 3 3 5 6 6 5 4 4 5 6 7 8 8 9 10 11 11 11 9 8 6 3 0 0 1 3 5 6 7 7 6 5 5 5 5 5 6 7 7 8 10 11 12 12 12 12 11 11 11 11 11
4 3 3 4 4 4 4 4 5 5 5 5 6 7 7 7 7 7 8 8 8 8 9 8 8 8 8 8 8 8 8 8 8 9 10 9 8 8 8 8 8 7 8 8 8 9 9 9 9 8 6 6 4 3 3 4 5 5 5 6 6 6 7 8 9 9 10 10 10 10 10 8 5 3 2 3 4 5 6 6 7 7 6 5 5 5 5 5 6 7 8 9 10 11 12 12 12 11 11 11 11 11 11
Height
3210 3210 3210 3210 3210 3211 3211 3211 3211 3211 3211 3211 3211 3211 3211 3211 3211 3211 3212 3212 3212 3212 3211 3211 3211 3211 3211 3211 3211 3210 3210 3210 3210 3210 3210 3210 3209 3209 3209 3208 3208 3208 3207 3207 3207 3206 3206 3206 3205 3205 3204 3204 3203 3203 3202 3202 3201 3201 3200 3200 3200 3199 3199 3198 3198 3197 3197 3196 3196 3195 3195 3195 3194 3194 3193 3193 3193 3192 3192 3191 3191 3190 3190 3190 3189 3189 3188 3188 3187 3187 3186 3186 3185 3185 3185 3184 3184 3183 3182 3182 3182 3181 3180
3211 3211 3211 3211 3211 3211 3211 3211 3212 3212 3212 3212 3212 3212 3212 3212 3212 3212 3212 3212 3212 3212 3212 3212 3212 3212 3212 3212 3211 3211 3211 3211 3210 3210 3210 3210 3210 3209 3209 3209 3209 3208 3208 3208 3207 3207 3207 3206 3206 3205 3205 3204 3204 3203 3203 3202 3202 3201 3201 3200 3200 3200 3199 3199 3198 3198 3197 3197 3196 3196 3195 3195 3194 3194 3194 3193 3193 3192 3192 3191 3191 3191 3190 3190 3189 3189 3188 3188 3187 3187 3186 3186 3185 3185 3185 3184 3184 3183 3183 3182 3182 3181 3180
3211 3211 3212 3212 3212 3212 3212 3212 3212 3212 3212 3213 3213 3213 3213 3213 3213 3213 3213 3213 3213 3213 3213 3213 3213 3213 3213 3212 3212 3212 3212 3211 3211 3211 3210 3210 3210 3210 3209 3209 3209 3208 3208 3208 3207 3207 3207 3207 3206 3206 3205 3204 3204 3204 3203 3202 3202 3201 3201 3200 3200 3200 3199 3199 3199 3198 3197 3197 3196 3196 3195 3195 3195 3194 3194 3193 3193 3192 3192 3191 3191 3191 3190 3190 3190 3189 3189 3188 3187 3187 3186 3186 3185 3185 3185 3184 3184 3183 3183 3182 3182 3181 3180
3212 3212 3212 3212 3212 3213 3213 3213 3213 3213 3213 3213 3214 3214 3214 3214 3214 3214 3214 3214 3214 3214 3214 3214 3214 3213 3213 3213 3213 3212 3212 3212 3211 3211 3211 3210 3210 3210 3210 3209 3209 3209 3208 3208 3208 3207 3207 3207 3207 3206 3205 3205 3204 3204 3203 3203 3202 3202 3201 3200 3200 3200 3199 3199 3199 3198 3198 3197 3197 3196 3196 3195 3195 3195 3194 3193 3193 3192 3192 3191 3191 3191 3190 3190 3190 3189 3189 3188 3188 3187 3186 3186 3185 3185 3185 3184 3184 3183 3183 3182 3181 3181 3180
3213 3213 3213 3213 3213 3213 3214 3214 3214 3214 3214 3214 3214 3214 3214 3214 3215 3215 3215 3215 3214 3214 3214 3214 3214 3214 3214 3213 3213 3213 3212 3212 3212 3211 3211 3211 3210 3210 3210 3209 3209 3209 3208 3208 3208 3207 3207 3207 3207 3206 3205 3205 3204 3204 3203 3203 3202 3201 3201 3200 3200 3200 3199 3199 3199 3198 3198 3197 3197 3196 3196 3196 3195 3195 3194 3194 3193 3193 3192 3192 3191 3191 3190 3190 3190 3189 3189 3188 3188 3187 3186 3186 3185 3185 3185 3184 3184 3183 3183 3182 3182 3181 3180
3213 3214 3214 3214 3214 3214 3214 3214 3215 3215 3215 3215 3215 3215 3215 3215 3215 3215 3215 3215 3215 3215 3215 3214 3214 3214 3214 3214 3213 3213 3213 3212 3212 3212 3211 3211 3210 3210 3210 3210 3209 3209 3208 3208 3207 3207 3207 3207 3206 3206 3205 3205 3204 3204 3203 3203 3202 3201 3201 3200 3200 3200 3199 3199 3199 3198 3198 3197 3197 3196 3196 3195 3195 3195 3194 3194 3193 3193 3192 3192 3191 3191 3190 3190 3189 3189 3188 3188 3187 3187 3186 3186 3185 3185 3185 3184 3184 3183 3183 3182 3182 3181 3181
3214 3214 3215 3215 3215 3215 3215 3215 3215 3215 3215 3215 3215 3215 3215 3215 3215 3215 3215 3215 3215 3215 3215 3215 3214 3214 3214 3214 3213 3213 3213 3212 3212 3212 3211 3211 3210 3210 3210 3210 3209 3209 3208 3208 3207 3207 3206 3206 3206 3206 3205 3205 3204 3204 3203 3203 3202 3201 3201 3200 3200 3199 3199 3199 3198 3198 3198 3197 3197 3196 3196 3195 3195 3195 3194 3194 3193 3193 3192 3192 3191 3191 3190 3190 3189 3189 3188 3188 3187 3187 3186 3186 3185 3185 3185 3184 3184 3183 3183 3182 3182 3181 3181
3215 3215 3215 3215 3215 3215 3215 3215 3215 3215 3215 3215 3215 3215 3215 3215 3215 3215 3215 3215 3215 3215 3215 3215 3214 3214 3214 3214 3213 3213 3213 3212 3212 3212 3211 3211 3210 3210 3210 3209 3209 3208 3208 3207 3207 3207 3206 3206 3206 3205 3205 3204 3204 3203 3203 3202 3202 3201 3201 3200 3200 3199 3199 3198 3198 3198 3197 3197 3196 3196 3195 3195 3195 3194 3194 3194 3193 3193 3192 3192 3191 3191 3190 3190 3189 3189 3188 3188 3187 3187 3186 3186 3185 3185 3185 3184 3184 3183 3182 3182 3181 3181 3180
3215 3215 3215 3215 3216 3216 3216 3216 3216 3216 3216 3216 3216 3216 3216 3216 3216 3215 3215 3215 3215 3215 3215 3215 3214 3214 3214 3214 3213 3213 3213 3212 3212 3211 3211 3211 3210 3210 3210 3209 3209 3208 3208 3207 3207 3206 3206 3205 3205 3205 3205 3204 3203 3203 3203 3202 3202 3201 3200 3200 3200 3199 3198 3198 3197 3197 3197 3196 3196 3195 3195 3195 3194 3194 3193 3193 3193 3192 3192 3191 3191 3190 3190 3190 3189 3189 3188 3188 3187 3186 3186 3186 3185 3185 3184 3184 3183 3183 3182 3182 3181 3181 3180
3216 3216 3216 3216 3216 3216 3216 3216 3216 3216 3216 3216 3216 3216 3216 3216 3216 3216 3215 3215 3215 3215 3215 3215 3214 3214 3214 3213 3213 3213 3212 3212 3212 3211 3211 3210 3210 3210 3209 3209 3208 3208 3207 3207 3206 3206 3205 3205 3205 3205 3204 3203 3203 3202 3202 3202 3201 3201 3200 3200 3199 3198 3198 3197 3197 3197 3196 3196 3195 3195 3195 3194 3194 3193 3193 3192 3192 3192 3191 3191 3190 3190 3190 3189 3189 3188 3188 3187 3187 3186 3186 3185 3185 3185 3184 3184 3183 3183 3182 3182 3181 3181 3180
3216 3216 3216 3216 3216 3216 3216 3216 3216 3216 3216 3216 3216 3216 3216 3216 3216 3216 3215 3215 3215 3215 3215 3214 3214 3214 3214 3213 3213 3212 3212 3212 3211 3211 3210 3210 3210 3209 3209 3208 3208 3208 3207 3206 3206 3205 3205 3204 3204 3204 3204 3203 3202 3202 3201 3201 3200 3200 3200 3199 3198 3198 3197 3197 3196 3196 3195 3195 3195 3195 3194 3194 3193 3193 3192 3192 3191 3191 3191 3190 3190 3190 3189 3189 3188 3188 3187 3187 3186 3186 3185 3185 3185 3184 3184 3183 3183 3182 3182 3181 3181 3180 3180
3216 3217 3217 3217 3217 3217 3217 3217 3216 3216 3216 3216 3216 3216 3216 3216 3215 3215 3215 3215 3215 3215 3215 3214 3214 3214 3213 3213 3213 3212 3212 3211 3211 3210 3210 3210 3209 3209 3208 3208 3207 3207 3207 3206 3205 3205 3204 3204 3203 3203 3203 3202 3202 3201 3201 3200 3200 3200 3199 3199 3198 3197 3197 3196 3195 3195 3195 3194 3194 3194 3193 3193 3193 3192 3192 3191 3191 3190 3190 3190 3189 3189 3188 3188 3188 3187 3187 3186 3186 3185 3185 3185 3184 3184 3183 3183 3182 3182 3181 3181 3180 3180 3180
3217 3217 3217 3217 3217 3217 3217 3217 3217 3217 3216 3216 3216 3216 3216 3215 3215 3215 3215 3215 3215 3215 3214 3214 3214 3213 3213 3213 3212 3212 3211 3211 3210 3210 3210 3209 3209 3208 3208 3207 3207 3206 3206 3205 3205 3205 3204 3203 3203 3202 3202 3202 3201 3201 3200 3200 3199 3199 3198 3198 3197 3197 3196 3195 3195 3194 3194 3193 3193 3193 3192 3192 3192 3191 3191 3190 3190 3190 3189 3189 3188 3188 3188 3187 3187 3186 3186 3186 3185 3185 3184 3184 3183 3183 3183 3182 3182 3181 3181 3180 3180 3180 3179
3217 3217 3217 3217 3217 3217 3217 3217 3217 3217 3217 3216 3216 3216 3216 3216 3215 3215 3215 3215 3215 3214 3214 3214 3213 3213 3213 3212 3212 3211 3211 3210 3210 3210 3209 3209 3208 3208 3207 3207 3206 3206 3205 3205 3205 3204 3204 3203 3203 3202 3201 3201 3200 3200 3200 3199 3198 3198 3197 3197 3196 3196 3195 3195 3194 3194 3193 3193 3192 3192 3191 3191 3191 3190 3190 3190 3189 3189 3188 3188 3187 3187 3187 3186 3186 3186 3185 3185 3185 3184 3184 3183 3183 3182 3182 3181 3181 3180 3180 3180 3179 3179 3178
3217 3217 3217 3217 3217 3217 3217 3217 3217 3217 3217 3217 3216 3216 3216 3216 3215 3215 3215 3215 3215 3214 3214 3214 3213 3213 3212 3212 3211 3211 3210 3210 3210 3209 3209 3208 3208 3207 3206 3206 3205 3205 3205 3204 3204 3203 3203 3202 3202 3202 3201 3200 3200 3199 3199 3198 3197 3197 3196 3196 3195 3195 3194 3194 3193 3193 3192 3192 3191 3191 3190 3190 3190 3189 3189 3189 3188 3188 3188 3187 3187 3186 3186 3185 3185 3185 3185 3184 3184 3183 3183 3182 3182 3181 3181 3181 3180 3180 3180 3179 3179 3178 3178
3217 3217 3217 3217 3217 3217 3217 3217 3217 3217 3217 3217 3216 3216 3216 3216 3215 3215 3215 3215 3215 3214 3214 3213 3213 3212 3212 3211 3211 3210 3210 3210 3209 3209 3208 3208 3207 3206 3206 3205 3205 3204 3204 3203 3203 3202 3201 3201 3201 3201 3200 3200 3199 3198 3198 3197 3196 3196 3195 3195 3194 3194 3193 3193 3192 3192 3191 3191 3190 3190 3190 3189 3189 3188 3188 3188 3187 3187 3187 3186 3186 3185 3185 3185 3184 3184 3184 3183 3183 3182 3182 3181 3181 3180 3180 3180 3180 3179 3179 3178 3178 3177 3177
3217 3217 3217 3217 3217 3217 3217 3217 3217 3217 3217 3217 3216 3216 3216 3216 3215 3215 3215 3215 3215 3214 3214 3213 3213 3212 3212 3211 3211 3210 3210 3209 3209 3208 3208 3207 3206 3206 3205 3205 3204 3204 3203 3202 3202 3201 3200 3200 3200 3200 3200 3199 3198 3197 3197 3196 3195 3195 3194 3194 3193 3193 3192 3192 3191 3190 3190 3190 3190 3189 3189 3188 3188 3187 3187 3186 3186 3186 3186 3185 3185 3185 3184 3184 3183 3183 3182 3182 3182 3181 3181 3180 3180 3180 3179 3179 3179 3178 3178 3177 3177 3176 3176
3217 3217 3217 3217 3217 3217 3217 3217 3217 3217 3217 3216 3216 3216 3216 3215 3215 3215 3215 3214 3214 3214 3213 3213 3213 3212 3211 3211 3210 3210 3209 3209 3208 3207 3207 3206 3206 3205 3205 3204 3203 3203 3202 3201 3201 3200 3199 3199 3198 3198 3198 3198 3197 3197 3196 3195 3194 3194 3193 3193 3192 3192 3191 3190 3190 3190 3189 3189 3188 3188 3188 3187 3187 3186 3185 3185 3185 3185 3185 3184 3184 3184 3183 3183 3182 3182 3181 3181 3181 3180 3180 3180 3179 3179 3178 3178 3177 3177 3177 3176 3176 3175 3175
3217 3217 3217 3217 3217 3217 3217 3217 3217 3217 3216 3216 3216 3216 3215 3215 3215 3215 3214 3214 3214 3213 3213 3213 3212 3212 3211 3211 3210 3209 3209 3208 3207 3207 3206 3205 3205 3205 3204 3203 3203 3202 3201 3201 3200 3199 3199 3198 3197 3197 3197 3197 3196 3196 3195 3194 3193 3193 3192 3192 3191 3190 3190 3190 3189 3188 3188 3187 3187 3187 3187 3186 3186 3185 3185 3184 3184 3184 3183 3183 3183 3182 3182 3182 3181 3181 3180 3180 3180 3179 3179 3178 3178 3178 3177 3177 3176 3176 3176 3175 3175 3175 3174
3217 3217 3217 3217 3217 3217 3217 3217 3216 3216 3216 3216 3216 3215 3215 3215 3215 3214 3214 3214 3213 3213 3212 3212 3212 3211 3211 3210 3210 3209 3208 3208 3207 3206 3205 3205 3204 3204 3203 3203 3202 3201 3200 3200 3199 3199 3198 3197 3196 3196 3196 3195 3195 3195 3194 3193 3192 3192 3191 3190 3190 3189 3189 3188 3188 3187 3187 3186 3186 3185 3185 3185 3185 3185 3184 3184 3183 3183 3182 3182 3182 3181 3181 3181 3180 3180 3180 3179 3179 3178 3178 3177 3177 3176 3176 3176 3175 3175 3175 3175 3174 3174 3173
3217 3217 3217 3217 3217 3216 3216 3216 3216 3216 3216 3215 3215 3215 3215 3215 3214 3214 3214 3213 3213 3212 3212 3211 3211 3210 3210 3210 3209 3209 3208 3207 3207 3206 3205 3205 3204 3203 3202 3202 3201 3200 3200 3199 3199 3198 3197 3196 3195 3195 3195 3195 3194 3194 3193 3192 3192 3191 3190 3190 3189 3188 3188 3187 3187 3186 3185 3185 3185 3185 3184 3184 3184 3184 3184 3183 3182 3182 3181 3181 3180 3180 3180 3180 3179 3179 3178 3178 3178 3177 3177 3176 3176 3175 3175 3175 3175 3174 3174 3173 3173 3173 3172
3216 3216 3216 3216 3216 3216 3216 3216 3215 3215 3215 3215 3215 3215 3214 3214 3214 3213 3213 3213 3212 3212 3211 3211 3210 3210 3209 3209 3208 3208 3207 3207 3206 3206 3205 3205 3204 3203 3202 3201 3200 3200 3199 3198 3198 3197 3196 3195 3195 3194 3194 3193 3193 3193 3192 3191 3191 3190 3189 3189 3188 3187 3187 3186 3185 3185 3185 3184 3184 3184 3183 3183 3182 3182 3182 3182 3181 3181 3180 3180 3179 3179 3179 3178 3178 3178 3177 3177 3176 3176 3176 3175 3175 3175 3174 3174 3174 3173 3173 3172 3172 3171 3171
3216 3216 3216 3216 3216 3215 3215 3215 3215 3215 3215 3215 3214 3214 3214 3214 3213 3213 3212 3212 3211 3211 3211 3210 3210 3209 3209 3208 3207 3207 3206 3206 3206 3205 3205 3204 3203 3202 3201 3201 3200 3199 3198 3198 3197 3196 3195 3195 3194 3193 3193 3192 3192 3192 3191 3190 3190 3189 3188 3188 3187 3186 3186 3185 3185 3184 3184 3183 3183 3183 3182 3182 3181 3181 3181 3180 3180 3180 3179 3179 3178 3178 3177 3177 3177 3176 3176 3176 3175 3175 3175 3174 3174 3174 3173 3173 3172 3172 3172 3171 3171 3170 3170
3215 3215 3215 3215 3215 3215 3215 3215 3215 3214 3214 3214 3214 3213 3213 3213 3212 3212 3211 3211 3211 3210 3210 3210 3209 3208 3208 3207 3207 3206 3206 3205 3205 3204 3204 3203 3202 3201 3201 3200 3199 3198 3198 3197 3196 3195 3195 3194 3193 3192 3192 3191 3191 3191 3190 3190 3189 3188 3188 3187 3186 3185 3185 3184 3184 3183 3182 3182 3182 3181 3181 3181 3180 3180 3180 3180 3179 3179 3178 3178 3177 3177 3176 3176 3175 3175 3175 3175 3174 3174 3174 3173 3173 3172 3172 3172 3171 3171 3171 3170 3170 3170 3169
3215 3215 3215 3215 3215 3214 3214 3214 3214 3214 3213 3213 3213 3213 3212 3212 3211 3211 3211 3210 3210 3210 3209 3209 3209 3208 3207 3207 3206 3205 3205 3204 3203 3203 3202 3201 3201 3200 3200 3199 3198 3197 3197 3196 3195 3195 3194 3194 3193 3192 3191 3190 3190 3190 3190 3189 3189 3188 3187 3186 3185 3185 3184 3183 3183 3182 3181 3181 3180 3180 3180 3180 3180 3179 3179 3178 3178 3178 3177 3177 3176 3176 3175 3175 3174 3174 3174 3174 3173 3173 3173 3172 3172 3171 3171 3170 3170 3170 3170 3169 3169 3169 3168
3215 3215 3214 3214 3214 3213 3213 3213 3213 3212 3212 3212 3212 3212 3212 3211 3211 3211 3210 3210 3210 3209 3209 3208 3208 3207 3207 3206 3205 3205 3204 3203 3202 3202 3201 3200 3200 3199 3198 3198 3197 3196 3195 3195 3195 3194 3193 3193 3192 3191 3190 3190 3190 3189 3189 3189 3188 3187 3186 3185 3185 3184 3183 3182 3182 3181 3180 3180 3180 3179 3179 3179 3179 3178 3178 3177 3177 3177 3176 3176 3175 3175 3174 3173 3173 3173 3172 3172 3172 3172 3171 3171 3171 3170 3170 3170 3169 3169 3169 3168 3168 3167 3167
3214 3214 3214 3214 3213 3213 3213 3212 3212 3212 3211 3212 3212 3211 3211 3211 3211 3210 3210 3210 3209 3209 3208 3208 3207 3206 3205 3205 3204 3203 3203 3202 3201 3201 3200 3200 3199 3198 3197 3197 3196 3195 3195 3194 3193 3193 3192 3192 3191 3190 3190 3189 3189 3188 3188 3188 3187 3186 3186 3185 3184 3183 3182 3181 3181 3180 3180 3179 3178 3178 3178 3177 3177 3177 3176 3176 3176 3176 3175 3175 3175 3174 3173 3172 3172 3171 3171 3171 3171 3170 3170 3170 3170 3169 3169 3168 3168 3168 3167 3167 3167 3166 3166
3213 3213 3213 3213 3213 3213 3213 3212 3212 3212 3211 3211 3211 3211 3210 3210 3210 3210 3209 3209 3208 3207 3207 3206 3205 3205 3204 3204 3203 3202 3202 3201 3200 3200 3200 3199 3198 3197 3197 3196 3195 3194 3194 3193 3192 3192 3191 3190 3190 3189 3189 3188 3187 3187 3187 3186 3186 3185 3185 3184 3183 3182 3181 3180 3180 3179 3179 3178 3177 3177 3176 3176 3176 3175 3175 3175 3175 3174 3174 3174 3174 3173 3172 3171 3171 3170 3170 3170 3170 3169 3169 3169 3169 3168 3168 3167 3167 3166 3166 3166 3165 3165 3165
3212 3212 3212 3212 3212 3212 3212 3212 3211 3211 3211 3210 3210 3210 3210 3209 3209 3208 3208 3207 3207 3206 3205 3205 3204 3204 3203 3202 3202 3201 3200 3200 3200 3199 3198 3198 3197 3196 3196 3195 3195 3194 3193 3192 3192 3191 3190 3190 3189 3188 3187 3187 3186 3186 3185 3185 3185 3184 3184 3183 3182 3181 3180 3180 3179 3178 3178 3177 3176 3176 3175 3175 3175 3174 3174 3174 3173 3173 3173 3173 3172 3172 3171 3171 3170 3170 3169 3169 3168 3168 3168 3167 3167 3167 3166 3166 3166 3165 3165 3164 3164 3164 3163
3211 3211 3211 3211 3211 3211 3210 3210 3210 3210 3210 3210 3209 3209 3208 3208 3207 3207 3206 3206 3205 3205 3205 3204 3203 3203 3202 3202 3201 3200 3200 3199 3199 3198 3197 3197 3196 3195 3195 3194 3194 3193 3192 3192 3191 3190 3189 3189 3188 3187 3186 3185 3185 3184 3184 3183 3183 3183 3182 3181 3181 3180 3180 3179 3178 3177 3177 3176 3175 3175 3174 3174 3174 3173 3173 3172 3172 3172 3171 3171 3171 3171 3170 3170 3170 3169 3169 3168 3168 3167 3167 3166 3166 3165 3165 3165 3165 3164 3164 3163 3163 3162 3162
3210 3210 3210 3210 3210 3210 3210 3209 3209 3209 3209 3208 3208 3208 3207 3207 3206 3206 3205 3205 3205 3204 3204 3203 3203 3202 3201 3201 3200 3200 3199 3198 3198 3197 3196 3196 3195 3194 3194 3193 3192 3192 3191 3190 3190 3189 3189 3188 3187 3186 3185 3185 3184 3183 3182 3182 3182 3181 3181 3180 3180 3179 3179 3178 3177 3176 3176 3175 3175 3174 3173 3173 3172 3172 3172 3171 3171 3170 3170 3170 3170 3170 3170 3169 3169 3168 3168 3167 3167 3166 3166 3165 3165 3165 3164 3164 3163 3163 3163 3162 3161 3161 3160
3210 3209 3209 3209 3209 3209 3209 3208 3208 3208 3208 3207 3207 3207 3206 3206 3205 3205 3205 3204 3204 3203 3203 3202 3202 3201 3201 3200 3200 3199 3198 3198 3197 3196 3195 3195 3194 3193 3193 3192 3191 3190 3190 3189 3189 3188 3187 3187 3186 3185 3185 3184 3183 3182 3181 3181 3180 3180 3180 3179 3179 3178 3178 3177 3176 3176 3175 3175 3174 3173 3172 3172 3171 3171 3170 3170 3170 3170 3169 3169 3169 3169 3168 3168 3167 3167 3167 3166 3166 3165 3165 3165 3164 3164 3163 3163 3162 3162 3162 3161 3160 3160 3160
3208 3208 3208 3208 3208 3208 3208 3207 3207 3207 3207 3206 3206 3206 3205 3205 3205 3204 3204 3203 3203 3202 3202 3201 3201 3200 3200 3199 3199 3198 3197 3197 3196 3195 3195 3194 3193 3192 3191 3191 3190 3190 3189 3188 3187 3187 3186 3185 3185 3184 3184 3183 3182 3181 3180 3180 3179 3179 3179 3178 3178 3177 3177 3176 3175 3175 3174 3174 3173 3172 3172 3171 3170 3170 3169 3169 3169 3168 3168 3168 3167 3167 3167 3166 3166 3166 3165 3165 3165 3164 3164 3164 3163 3163 3162 3162 3161 3161 3161 3160 3160 3159 3159
3207 3207 3207 3207 3207 3207 3207 3207 3206 3206 3206 3205 3205 3205 3204 3204 3204 3203 3203 3202 3202 3201 3201 3200 3200 3199 3199 3198 3197 3197 3196 3195 3195 3194 3194 3193 3192 3191 3190 3190 3189 3189 3188 3187 3186 3185 3185 3184 3184 3183 3182 3182 3181 3180 3180 3179 3178 3178 3177 3177 3177 3176 3175 3175 3174 3174 3173 3173 3172 3171 3171 3170 3170 3169 3168 3168 3167 3167 3167 3166 3166 3166 3165 3165 3165 3165 3164 3164 3163 3163 3162 3162 3162 3162 3162 3161 3161 3160 3160 3160 3159 3159 3158
3206 3206 3206 3206 3206 3206 3206 3206 3205 3205 3205 3204 3204 3204 3203 3203 3203 3202 3202 3201 3200 3200 3200 3199 3199 3198 3198 3197 3196 3195 3195 3194 3194 3193 3192 3192 3191 3190 3190 3189 3189 3188 3187 3186 3185 3185 3184 3183 3182 3182 3181 3181 3180 3179 3178 3178 3177 3176 3176 3175 3175 3175 3174 3174 3173 3173 3172 3171 3171 3170 3170 3170 3169 3168 3168 3167 3166 3166 3166 3165 3165 3165 3164 3164 3164 3163 3163 3162 3162 3161 3161 3160 3160 3160 3160 3160 3160 3159 3159 3159 3158 3158 3157
3205 3205 3205 3205 3205 3205 3205 3205 3205 3204 3204 3203 3203 3203 3202 3202 3201 3201 3200 3200 3200 3199 3199 3198 3198 3197 3196 3196 3195 3194 3194 3193 3192 3192 3191 3190 3190 3189 3189 3188 3188 3187 3186 3185 3185 3184 3183 3182 3181 3180 3180 3179 3179 3178 3177 3176 3175 3175 3174 3174 3174 3173 3173 3173 3172 3171 3171 3170 3170 3169 3169 3169 3168 3168 3167 3166 3166 3165 3165 3164 3164 3164 3163 3163 3163 3162 3162 3161 3160 3160 3160 3160 3159 3159 3158 3158 3158 3158 3157 3157 3157 3156 3156
3203 3203 3203 3204 3204 3204 3204 3204 3203 3203 3203 3202 3202 3201 3201 3201 3200 3200 3200 3199 3199 3198 3197 3197 3196 3196 3195 3195 3194 3193 3192 3192 3191 3191 3190 3190 3189 3188 3188 3187 3187 3186 3186 3185 3184 3183 3182 3181 3180 3180 3179 3178 3178 3177 3176 3175 3174 3174 3173 3172 3172 3172 3172 3171 3171 3170 3170 3169 3168 3168 3168 3167 3167 3167 3166 3165 3165 3165 3164 3164 3163 3163 3162 3162 3161 3161 3160 3160 3160 3159 3159 3158 3158 3158 3157 3157 3156 3156 3156 3155 3155 3155 3155
3202 3202 3202 3202 3202 3202 3202 3202 3202 3202 3202 3201 3201 3200 3200 3200 3199 3199 3198 3198 3197 3197 3196 3196 3195 3195 3194 3193 3193 3192 3191 3191 3190 3190 3189 3188 3188 3187 3186 3186 3185 3185 3184 3184 3183 3182 3181 3180 3179 3178 3178 3177 3176 3176 3175 3174 3173 3172 3172 3171 3171 3170 3170 3170 3170 3169 3169 3168 3167 3167 3166 3166 3166 3165 3165 3165 3164 3164 3163 3163 3162 3162 3161 3161 3160 3160 3159 3159 3159 3158 3158 3157 3157 3157 3156 3156 3155 3155 3154 3154 3154 3154 3153
3201 3201 3201 3201 3201 3201 3201 3201 3201 3201 3200 3200 3200 3199 3199 3198 3198 3197 3197 3196 3196 3195 3195 3194 3194 3193 3193 3192 3191 3191 3190 3190 3189 3189 3188 3187 3186 3186 3185 3184 3184 3183 3183 3182 3182 3181 3180 3179 3178 3177 3177 3176 3175 3175 3174 3173 3172 3171 3170 3170 3169 3169 3169 3169 3168 3168 3168 3167 3166 3166 3165 3165 3165 3164 3164 3163 3163 3163 3162 3162 3161 3161 3160 3160 3159 3159 3158 3158 3158 3157 3157 3156 3156 3155 3156 3155 3155 3154 3153 3153 3152 3152 3151
3200 3200 3200 3200 3200 3200 3200 3200 3200 3199 3199 3199 3198 3198 3197 3197 3196 3196 3195 3195 3194 3194 3193 3193 3192 3192 3191 3191 3190 3190 3189 3189 3188 3187 3187 3186 3185 3184 3184 3183 3182 3182 3181 3181 3180 3180 3179 3178 3177 3176 3176 3175 3174 3173 3173 3172 3171 3170 3169 3168 3168 3168 3167 3167 3167 3167 3166 3166 3165 3165 3164 3164 3163 3163 3162 3162 3162 3161 3161 3160 3160 3160 3160 3159 3158 3158 3157 3157 3157 3156 3156 3155 3155 3155 3155 3155 3154 3153 3152 3152 3151 3150 3150
3198 3199 3199 3199 3199 3199 3199 3199 3198 3198 3198 3197 3197 3196 3196 3195 3195 3195 3194 3194 3193 3192 3192 3191 3191 3190 3190 3189 3189 3188 3187 3187 3186 3186 3185 3185 3184 3183 3182 3181 3181 3180 3180 3180 3179 3179 3178 3177 3176 3175 3175 3174 3173 3172 3171 3170 3170 3169 3168 3167 3167 3166 3166 3166 3165 3165 3165 3165 3164 3164 3163 3163 3162 3161 3161 3161 3160 3160 3160 3159 3160 3160 3159 3158 3158 3157 3156 3156 3155 3155 3155 3155 3154 3154 3153 3153 3152 3151 3151 3150 3150 3149 3148
3197 3197 3197 3197 3197 3197 3197 3197 3197 3196 3196 3196 3195 3195 3195 3194 3194 3193 3193 3192 3192 3191 3190 3190 3190 3189 3188 3188 3187 3186 3186 3185 3185 3185 3184 3183 3182 3181 3180 3180 3179 3179 3178 3178 3177 3177 3177 3176 3175 3175 3174 3173 3172 3171 3170 3169 3168 3167 3167 3166 3165 3165 3165 3164 3164 3164 3164 3163 3163 3163 3162 3162 3161 3160 3160 3160 3159 3159 3158 3159 3159 3159 3158 3157 3157 3156 3155 3155 3155 3154 3154 3153 3153 3153 3152 3152 3151 3150 3150 3149 3148 3147 3146
3196 3196 3196 3196 3196 3196 3195 3195 3195 3195 3195 3195 3194 3194 3193 3193 3192 3192 3191 3191 3190 3190 3189 3189 3188 3187 3187 3186 3185 3185 3184 3184 3183 3183 3182 3181 3180 3180 3179 3178 3177 3177 3176 3176 3175 3175 3175 3174 3174 3173 3172 3171 3170 3170 3169 3168 3167 3166 3165 3165 3164 3164 3163 3163 3162 3162 3162 3162 3161 3161 3161 3161 3160 3160 3159 3159 3158 3158 3157 3157 3157 3157 3156 3156 3156 3155 3155 3154 3154 3153 3152 3152 3152 3151 3151 3150 3150 3149 3149 3147 3146 3145 3145
3195 3195 3195 3195 3195 3194 3194 3194 3194 3194 3193 3193 3193 3192 3192 3191 3191 3190 3190 3189 3189 3189 3188 3187 3186 3185 3185 3184 3184 3183 3182 3182 3181 3181 3180 3180 3179 3178 3177 3176 3176 3175 3175 3174 3174 3173 3173 3172 3172 3171 3171 3170 3169 3169 3168 3167 3166 3165 3164 3164 3163 3162 3162 3161 3161 3160 3160 3160 3160 3160 3160 3160 3159 3159 3158 3158 3157 3157 3157 3156 3156 3156 3155 3155 3155 3154 3154 3153 3153 3152 3151 3151 3150 3150 3150 3149 3149 3148 3147 3146 3145 3144 3144
3194 3194 3194 3194 3193 3193 3193 3192 3192 3192 3192 3192 3191 3191 3190 3190 3190 3189 3188 3188 3187 3187 3186 3185 3185 3184 3183 3183 3182 3181 3181 3180 3180 3179 3178 3178 3177 3176 3176 3175 3175 3174 3173 3172 3172 3171 3171 3171 3170 3170 3170 3169 3168 3167 3167 3166 3165 3164 3163 3163 3162 3161 3161 3160 3159 3159 3159 3158 3158 3158 3158 3158 3158 3158 3157 3157 3156 3156 3155 3155 3155 3155 3155 3154 3154 3153 3153 3152 3151 3151 3150 3150 3150 3149 3148 3148 3147 3147 3146 3145 3144 3143 3142
3193 3192 3192 3192 3192 3191 3191 3191 3190 3190 3190 3190 3190 3190 3189 3189 3188 3187 3187 3186 3185 3185 3185 3184 3183 3183 3182 3181 3180 3180 3180 3179 3178 3177 3177 3176 3175 3175 3175 3174 3173 3173 3172 3171 3170 3170 3169 3169 3169 3168 3168 3167 3167 3166 3165 3165 3164 3163 3162 3161 3161 3160 3160 3159 3158 3158 3157 3157 3157 3156 3156 3156 3156 3156 3156 3155 3155 3155 3155 3154 3154 3154 3153 3153 3152 3152 3151 3151 3150 3150 3149 3149 3148 3148 3147 3146 3146 3145 3145 3143 3142 3141 3140
3191 3191 3191 3190 3190 3190 3190 3190 3189 3189 3189 3189 3188 3188 3188 3187 3186 3186 3185 3185 3184 3183 3183 3182 3182 3181 3180 3180 3179 3178 3178 3177 3176 3176 3175 3174 3174 3173 3173 3172 3172 3171 3171 3170 3169 3169 3168 3167 3167 3167 3166 3166 3165 3165 3165 3164 3162 3161 3161 3160 3160 3159 3159 3158 3157 3157 3156 3156 3155 3155 3155 3155 3155 3155 3155 3154 3154 3154 3153 3153 3153 3153 3152 3152 3151 3150 3150 3150 3149 3149 3148 3147 3147 3146 3145 3145 3144 3144 3143 3142 3141 3140 3139
3190 3190 3189 3189 3189 3189 3188 3188 3188 3187 3187 3187 3187 3186 3186 3186 3185 3185 3184 3183 3182 3182 3181 3180 3180 3179 3179 3178 3178 3177 3176 3175 3175 3174 3173 3172 3172 3171 3171 3170 3170 3170 3170 3169 3168 3167 3167 3166 3165 3165 3164 3164 3164 3164 3163 3162 3161 3160 3160 3160 3159 3158 3158 3157 3156 3156 3155 3155 3155 3154 3154 3154 3153 3153 3153 3153 3153 3152 3152 3152 3152 3151 3151 3150 3150 3149 3149 3148 3148 3147 3147 3146 3145 3145 3144 3144 3143 3142 3141 3141 3140 3139 3137
3188 3188 3188 3187 3187 3187 3187 3186 3186 3186 3185 3185 3185 3185 3185 3184 3184 3183 3182 3182 3181 3180 3180 3179 3178 3178 3177 3177 3176 3175 3175 3174 3173 3172 3171 3171 3170 3170 3169 3169 3168 3168 3168 3167 3167 3166 3165 3164 3163 3163 3162 3162 3162 3162 3162 3161 3160 3159 3159 3158 3158 3157 3156 3156 3155 3155 3155 3154 3154 3153 3153 3153 3152 3152 3152 3152 3151 3151 3151 3151 3151 3150 3150 3150 3149 3148 3148 3147 3146 3146 3145 3145 3144 3143 3143 3142 3141 3141 3140 3139 3139 3138 3137
3187 3187 3186 3186 3186 3185 3185 3185 3184 3184 3184 3184 3183 3183 3183 3183 3182 3182 3181 3180 3180 3179 3178 3177 3176 3176 3175 3175 3175 3174 3174 3173 3172 3171 3170 3169 3169 3168 3167 3167 3166 3166 3166 3165 3165 3164 3163 3163 3162 3161 3160 3160 3160 3160 3160 3160 3159 3158 3157 3157 3156 3155 3155 3155 3154 3154 3153 3153 3152 3152 3151 3151 3151 3150 3150 3150 3150 3150 3150 3150 3150 3149 3149 3149 3148 3147 3146 3146 3145 3144 3144 3143 3142 3142 3141 3140 3140 3139 3139 3138 3137 3136 3135
3185 3185 3185 3185 3185 3185 3184 3184 3183 3182 3182 3182 3181 3181 3181 3180 3180 3180 3179 3179 3178 3177 3176 3175 3175 3174 3173 3173 3173 3172 3172 3171 3170 3170 3169 3168 3167 3166 3165 3165 3165 3165 3164 3164 3163 3163 3162 3161 3160 3159 3158 3158 3158 3158 3158 3158 3157 3156 3156 3155 3154 3154 3153 3153 3153 3152 3152 3152 3151 3150 3150 3150 3150 3149 3149 3148 3148 3148 3148 3148 3148 3148 3148 3148 3147 3146 3145 3145 3144 3143 3142 3141 3141 3140 3140 3139 3138 3138 3137 3136 3135 3135 3134
3184 3184 3184 3184 3184 3183 3183 3182 3182 3181 3180 3180 3179 3179 3179 3179 3178 3178 3177 3177 3176 3175 3174 3173 3172 3172 3171 3171 3170 3170 3170 3170 3169 3168 3167 3166 3165 3165 3164 3163 3163 3162 3162 3162 3161 3161 3160 3159 3158 3157 3156 3156 3156 3156 3156 3156 3155 3155 3154 3153 3152 3152 3151 3151 3151 3151 3151 3150 3150 3149 3149 3149 3148 3148 3147 3146 3146 3146 3146 3147 3147 3147 3147 3146 3146 3145 3144 3143 3142 3141 3140 3140 3139 3139 3138 3137 3137 3136 3135 3135 3134 3133 3133
3183 3182 3182 3182 3182 3181 3181 3180 3180 3180 3179 3178 3178 3177 3177 3176 3176 3176 3175 3175 3174 3173 3173 3172 3171 3170 3169 3169 3169 3168 3168 3168 3167 3166 3165 3165 3164 3163 3162 3162 3161 3160 3160 3160 3160 3160 3159 3158 3157 3155 3155 3154 3154 3155 3155 3154 3154 3153 3152 3151 3150 3150 3150 3150 3150 3150 3150 3149 3149 3148 3148 3147 3147 3146 3145 3145 3145 3145 3145 3145 3145 3145 3145 3145 3144 3144 3143 3142 3141 3140 3139 3139 3138 3137 3136 3136 3135 3135 3134 3133 3132 3132 3131
3181 3180 3180 3180 3180 3180 3179 3179 3178 3178 3177 3177 3176 3175 3175 3175 3174 3174 3173 3173 3172 3172 3171 3170 3169 3168 3167 3167 3167 3166 3166 3165 3165 3164 3163 3163 3162 3161 3160 3160 3160 3159 3158 3158 3158 3158 3157 3157 3155 3154 3153 3152 3152 3152 3152 3152 3152 3151 3150 3150 3149 3148 3148 3147 3148 3148 3148 3148 3148 3147 3146 3146 3145 3145 3144 3143 3143 3143 3143 3143 3144 3144 3144 3143 3143 3142 3141 3140 3139 3138 3138 3137 3136 3136 3135 3135 3134 3133 3132 3131 3131 3130 3130
3179 3179 3179 3178 3178 3178 3178 3177 3177 3176 3176 3175 3175 3174 3174 3173 3172 3172 3171 3171 3170 3170 3169 3168 3167 3166 3166 3165 3165 3165 3164 3164 3163 3163 3162 3161 3160 3160 3159 3159 3158 3157 3156 3156 3156 3156 3155 3155 3154 3153 3151 3150 3150 3150 3150 3150 3150 3149 3149 3148 3147 3146 3145 3145 3145 3145 3146 3146 3146 3146 3145 3145 3144 3143 3142 3142 3141 3141 3141 3142 3142 3142 3142 3141 3140 3140 3139 3138 3137 3137 3136 3135 3135 3135 3134 3133 3132 3131 3131 3130 3130 3129 3128
3178 3177 3177 3177 3177 3176 3176 3176 3175 3175 3174 3174 3173 3173 3172 3171 3171 3170 3170 3169 3168 3167 3167 3166 3165 3165 3164 3164 3163 3163 3163 3162 3162 3161 3160 3160 3159 3158 3157 3157 3157 3156 3155 3155 3155 3154 3154 3153 3152 3151 3150 3149 3148 3148 3148 3148 3148 3148 3147 3146 3145 3144 3143 3143 3143 3143 3143 3144 3145 3145 3144 3143 3143 3142 3141 3140 3140 3140 3140 3140 3140 3140 3140 3139 3139 3138 3137 3136 3135 3135 3135 3134 3134 3133 3132 3131 3131 3130 3130 3129 3128 3128 3127
3176 3176 3176 3175 3175 3175 3175 3174 3174 3174 3173 3172 3172 3171 3170 3170 3169 3169 3168 3167 3166 3165 3165 3164 3163 3163 3162 3162 3161 3161 3161 3161 3160 3160 3159 3158 3157 3156 3156 3155 3155 3155 3155 3154 3154 3153 3152 3152 3151 3150 3148 3147 3147 3146 3146 3146 3146 3146 3145 3145 3144 3143 3141 3141 3141 3141 3141 3141 3142 3143 3142 3142 3141 3140 3140 3140 3139 3139 3139 3139 3139 3138 3138 3137 3137 3136 3135 3135 3134 3133 3133 3132 3132 3131 3131 3130 3129 3129 3128 3127 3127 3126 3125
3175 3174 3174 3174 3174 3173 3173 3173 3172 3172 3171 3170 3170 3169 3169 3168 3167 3166 3166 3165 3164 3164 3163 3162 3162 3161 3160 3160 3160 3159 3159 3159 3159 3159 3158 3157 3156 3155 3155 3154 3153 3153 3153 3152 3153 3152 3151 3151 3150 3149 3148 3146 3145 3145 3144 3144 3144 3144 3144 3143 3142 3141 3140 3139 3139 3139 3139 3139 3140 3140 3140 3140 3140 3139 3139 3138 3138 3138 3137 3137 3137 3137 3136 3136 3135 3134 3134 3133 3132 3132 3131 3131 3130 3130 3129 3129 3128 3127 3127 3126 3125 3125 3124
3172 3172 3172 3172 3171 3171 3171 3170 3170 3170 3169 3169 3168 3167 3167 3166 3165 3165 3164 3163 3162 3162 3161 3160 3160 3160 3159 3158 3158 3157 3157 3157 3157 3157 3156 3155 3155 3154 3153 3152 3151 3151 3150 3150 3151 3151 3150 3150 3149 3148 3147 3146 3144 3143 3143 3142 3142 3142 3142 3142 3141 3140 3139 3138 3137 3137 3137 3137 3138 3138 3138 3138 3138 3137 3137 3137 3136 3136 3136 3136 3135 3135 3135 3134 3133 3133 3132 3131 3131 3130 3130 3129 3129 3128 3127 3127 3126 3126 3125 3125 3124 3123 3123
3170 3170 3170 3170 3170 3169 3169 3169 3168 3168 3167 3167 3166 3165 3165 3164 3164 3163 3162 3161 3160 3160 3159 3159 3158 3158 3157 3156 3156 3155 3155 3155 3155 3155 3155 3154 3153 3152 3152 3150 3150 3149 3149 3149 3149 3149 3149 3148 3147 3147 3146 3145 3144 3143 3141 3141 3141 3141 3141 3140 3139 3138 3138 3137 3136 3136 3136 3136 3136 3136 3136 3136 3136 3136 3135 3135 3135 3135 3134 3134 3134 3133 3133 3132 3131 3131 3130 3130 3129 3128 3128 3127 3126 3126 3125 3125 3125 3124 3124 3123 3122 3122 3121
3169 3168 3168 3168 3168 3167 3167 3166 3166 3166 3165 3165 3164 3164 3163 3162 3162 3161 3160 3160 3159 3158 3157 3157 3156 3155 3155 3155 3154 3153 3153 3153 3153 3153 3152 3152 3151 3150 3150 3149 3148 3147 3147 3147 3147 3147 3147 3146 3146 3145 3145 3144 3143 3142 3141 3140 3140 3140 3139 3138 3138 3137 3136 3135 3135 3134 3134 3134 3134 3134 3134 3134 3134 3134 3134 3134 3133 3133 3132 3132 3132 3131 3131 3130 3130 3129 3128 3128 3127 3126 3126 3125 3125 3124 3124 3123 3123 3122 3122 3121 3121 3120 3120